WS6A-13 Weather Reports


Display with metric or nautical units.
time (UTC)temp
F
wind
direction
speed
MPH
gust
MPH
rain 1hr
in
rain 24hr
in
rain mn
in
humidity
%
barometer
mb
20260502223004 51 35 0.0 2.0 0.00 0.00 0.00 51 1016.6
20260502221504 51 47 0.0 7.0 0.00 0.00 0.00 50 1016.5
20260502220003 51 23 0.0 8.0 0.00 0.00 0.00 50 1016.4
20260502214504 51 32 1.0 3.0 0.00 0.00 0.00 49 1016.3
20260502210004 52 214 1.0 8.0 0.00 0.00 0.00 50 1016.1
20260502203004 53 14 0.0 5.0 0.00 0.00 0.00 52 1016.2
20260502201504 52 124 0.0 8.0 0.00 0.00 0.00 51 1016.3
20260502200004 52 97 1.0 8.0 0.00 0.00 0.00 52 1016.3
20260502194504 52 63 1.0 8.0 0.00 0.00 0.00 51 1016.5
20260502193004 52 24 1.0 12.0 0.00 0.00 0.00 49 1016.5
20260502191504 54 44 0.0 7.0 0.00 0.00 0.00 46 1016.7
20260502190004 53 71 1.0 8.0 0.00 0.00 0.00 47 1016.8
20260502184503 52 11 2.0 6.0 0.00 0.00 0.00 51 1016.9
20260502181504 53 67 0.0 10.0 0.00 0.00 0.00 47 1017.0
20260502163004 51 355 0.0 7.0 0.00 0.00 0.00 55 1017.5
20260502161504 51 57 3.0 7.0 0.00 0.00 0.00 50 1017.6
20260502123004 41 87 0.0 2.0 0.00 0.08 0.00 72 1017.5
20260502121503 40 17 0.0 1.0 0.00 0.08 0.00 75 1017.3
20260502114504 38 13 0.0 0.0 0.00 0.08 0.00 81 1017.0
20260502113004 38 13 0.0 0.0 0.00 0.08 0.00 83 1016.9
20260502110004 38 13 0.0 0.0 0.00 0.08 0.00 85 1016.7
20260502104504 38 13 0.0 0.0 0.00 0.08 0.00 86 1016.7
20260502103003 38 13 0.0 0.0 0.00 0.08 0.00 86 1016.8
20260502071504 38 13 0.0 0.0 0.00 0.08 0.00 84 1016.4
20260502064504 39 13 0.0 0.0 0.00 0.08 0.00 83 1016.7
20260502063004 39 13 0.0 0.0 0.00 0.08 0.00 82 1016.8
20260502060003 40 13 0.0 0.0 0.00 0.08 0.00 82 1017.1
20260502054503 40 13 0.0 0.0 0.00 0.08 0.00 82 1017.1
20260502053004 41 13 0.0 0.0 0.00 0.08 0.00 84 1017.0
20260502051503 40 13 0.0 0.0 0.00 0.08 0.00 86 1017.1
20260502050004 40 13 0.0 0.0 0.00 0.08 0.00 86 1017.0
20260502044504 40 13 0.0 0.0 0.00 0.08 0.00 87 1017.1
20260502043003 39 13 0.0 0.0 0.00 0.08 0.00 86 1017.0
20260502041503 40 13 0.0 0.0 0.00 0.08 0.00 85 1016.9
20260502040003 41 13 0.0 0.0 0.00 0.08 0.00 83 1017.0
20260502034503 41 13 0.0 0.0 0.00 0.08 0.08 82 1017.0
20260502033003 42 13 0.0 0.0 0.00 0.08 0.08 82 1017.0
20260502031504 43 13 0.0 0.0 0.00 0.08 0.08 81 1016.9
20260502030004 43 13 0.0 0.0 0.00 0.08 0.08 79 1016.7
20260502024503 44 13 0.0 0.0 0.00 0.08 0.08 78 1016.8
20260502023004 45 13 0.0 0.0 0.00 0.08 0.08 78 1016.8
20260502021503 45 13 0.0 0.0 0.00 0.08 0.08 79 1016.7
20260502020004 45 13 0.0 0.0 0.00 0.08 0.08 79 1016.4
20260502014504 45 13 0.0 0.0 0.00 0.08 0.08 80 1016.0
20260502013004 46 13 0.0 0.0 0.00 0.08 0.08 79 1015.9
20260502011504 46 13 0.0 0.0 0.00 0.08 0.08 76 1015.6
20260502010004 47 13 0.0 0.0 0.00 0.08 0.08 74 1015.3
20260502004503 47 13 0.0 0.0 0.00 0.08 0.08 72 1014.9
20260502003004 49 13 0.0 0.0 0.00 0.08 0.08 72 1014.6
20260502000003 50 51 0.0 2.0 0.00 0.08 0.08 67 1014.7
20260501234504 51 57 1.0 5.0 0.00 0.08 0.08 64 1014.6
20260501233004 51 127 0.0 6.0 0.00 0.08 0.08 66 1014.6
20260501231504 51 276 0.0 7.0 0.00 0.08 0.08 64 1014.5
20260501230004 51 88 0.0 2.0 0.00 0.08 0.08 63 1014.4